Weather History for MMSP - April, 2013

Change the Weather History Date:

Monday, April 22, 2013

  Actual Average Record
Temperature  
Mean Temperature 66 °F -  
Max Temperature 92 °F 81 °F 93 °F (2015)
Min Temperature 40 °F 52 °F 40 °F (2013)
Cooling Degree Days 1    
Growing Degree Days 16 (Base 50)    
Moisture  
Dew Point 41 °F    
Average Humidity 45    
Maximum Humidity 96    
Minimum Humidity 6    
Precipitation  
Precipitation 0.00 in - - ()
Sea Level Pressure  
Sea Level Pressure 29.99 in    
Wind  
Wind Speed 3 mph ()    
Max Wind Speed 17 mph    
Max Gust Speed 23 mph    
Visibility 10.9 miles    
Events      
Averages and records for this station are not official NWS values.
T = Trace of Precipitation, MM = Missing Value Source: Averaged Metar Reports

Daily Weather History Graph

Daily Weather History Graph

Search for Another Location

Airport or City:

Trip Planner

Search our weather history database for the weather conditions in past years. The results will help you decide how hot, cold, wet, or windy it might be!

Date:

Astronomy

Apr. 22, 2013 Rise Set
Actual Time 7:17 AM CDT 8:06 PM CDT
Civil Twilight 6:54 AM CDT 8:29 PM CDT
Nautical Twilight 6:27 AM CDT 8:57 PM CDT
Astronomical Twilight 6:00 AM CDT 9:24 PM CDT
Moon 5:17 PM CDT (4/22) 4:50 AM CDT (4/22)
Length of Visible Light 13h 34m
Length of Day
12h 48m
Waxing Gibbous, 88% of the Moon is Illuminated
Apr 22
Waxing Gibbous
Apr 25
Full
May 2
Last Quarter
May 9
New
May 17
First Quarter

Hourly Weather History & Observations

Time (CDT) Temp. Dew Point Humidity Pressure Visibility Wind Dir Wind Speed Gust Speed Precip Events Conditions
12:45 AM 57.2 °F 42.8 °F 59% 29.81 in 10.0 mi Calm Calm - N/A   Clear
1:41 AM 55.4 °F 42.8 °F 63% 30.22 in 10.0 mi Calm Calm - N/A   Clear
2:51 AM 53.6 °F 46.4 °F 77% 30.22 in 10.0 mi NNW 4.6 mph - N/A   Clear
3:44 AM 51.8 °F 46.4 °F 82% 29.79 in 10.0 mi NNW 5.8 mph - N/A   Clear
4:42 AM 50.0 °F 46.4 °F 87% 30.21 in 8.0 mi NNW 5.8 mph - N/A   Clear
5:46 AM 48.2 °F 44.6 °F 87% 30.22 in 8.0 mi Calm Calm - N/A   Clear
6:43 AM 46.4 °F 41.0 °F 81% 29.84 in 8.0 mi Calm Calm - N/A   Clear
6:45 AM 48 °F 47 °F 96% 29.95 in 3 mi Calm Calm - -  
7:46 AM 46.4 °F 39.2 °F 76% 30.24 in 8.0 mi Calm Calm - N/A   Clear
8:47 AM 53.6 °F 44.6 °F 72% 30.26 in 10.0 mi Calm Calm - N/A   Clear
9:42 AM 60.8 °F 44.6 °F 55% 29.87 in 10.0 mi Calm Calm - N/A   Partly Cloudy
9:50 AM 58 °F 40 °F 39% 30.03 in 9 mi East 4.5 mph - -   Haze
10:43 AM 68.0 °F 41.0 °F 37% 30.27 in 10.0 mi South 4.6 mph - N/A   Partly Cloudy
11:46 AM 73.4 °F 32.0 °F 22% 30.26 in 12.0 mi Calm Calm - N/A   Partly Cloudy
12:44 PM 78.8 °F 17.6 °F 10% 29.20 in 15.0 mi NW 6.9 mph - N/A   Partly Cloudy
12:45 PM 80 °F 45 °F 19% 30.01 in 9 mi ESE 2.2 mph - -   Haze
1:44 PM 82.4 °F 8.6 °F 6% 30.19 in 15.0 mi NW 11.5 mph - N/A   Partly Cloudy
2:47 PM 86.0 °F 24.8 °F 11% 30.14 in 15.0 mi ESE 5.8 mph - N/A   Clear
3:45 PM 88 °F 44 °F 13% 29.81 in 12 mi North 2.2 mph - -  
3:51 PM 87.8 °F 23.0 °F 9% 29.63 in 15.0 mi NNE 9.2 mph - N/A   Clear
4:44 PM 89.6 °F 26.6 °F 10% 30.07 in 15.0 mi South 11.5 mph - N/A   Dust Whirls
5:52 PM 89.6 °F 26.6 °F 10% 30.05 in 15.0 mi WSW 5.8 mph - N/A   Clear
6:45 PM 85 °F 45 °F 15% 29.65 in 12 mi South 4.5 mph - -   Scattered Clouds
6:51 PM 84.2 °F 39.2 °F 20% 29.69 in 15.0 mi East 11.5 mph 23.0 mph N/A   Partly Cloudy
7:47 PM 77.0 °F 44.6 °F 32% 30.08 in 15.0 mi East 17.3 mph - N/A   Clear
8:46 PM 71.6 °F 48.2 °F 43% 30.11 in 12.0 mi ESE 8.1 mph - N/A   Clear
9:46 PM 68.0 °F 50.0 °F 52% 29.75 in 12.0 mi Calm Calm - N/A   Clear
9:50 PM 68 °F 50 °F 42% 29.65 in 5 mi SSE 4.5 mph - -  
10:00 PM - 68 °F %  in 5 mi SSE 4.5 mph - -  
10:43 PM 66.2 °F 50.0 °F 56% 30.16 in 12.0 mi Calm Calm - N/A   Clear
11:41 PM 62.6 °F 50.0 °F 63% 30.19 in 12.0 mi East 4.6 mph - N/A   Clear